DLH448 RPVM-RPMR

Flight info

Callsign DLH448
Flight time 0h 48m
Altitude 39000
Route DUMEX4P DUMEX W6A LUMVI W22 COT W19 MELBY MELBY3P
Aircraft A346/H-SDE2E3FGHIJ3J4J5M1RWXY/LB1D1

Departure

Time 2026-05-06 11:06
Airport Mactan Cebu International Airport (RPVM)

Arrival

Time 2026-05-06 11:55
Airport General Santos International Airport (RPMR)
Time Latitude Longitude Altitude Speed Heading
2026-05-06 10:55 10.31347 123.97874 40 ft 0 kts 136°
2026-05-06 10:58 10.31339 123.97882 40 ft 7 kts 136°
2026-05-06 10:58 10.31278 123.97941 42 ft 18 kts 136°
2026-05-06 10:58 10.31212 123.97972 47 ft 12 kts 196°
2026-05-06 10:58 10.31136 123.97918 47 ft 17 kts 224°
2026-05-06 10:59 10.31027 123.97810 46 ft 24 kts 224°
2026-05-06 10:59 10.30925 123.97707 47 ft 20 kts 224°
2026-05-06 10:59 10.30820 123.97602 46 ft 22 kts 224°
2026-05-06 10:59 10.30705 123.97490 47 ft 24 kts 224°
2026-05-06 11:00 10.30584 123.97371 47 ft 25 kts 224°
2026-05-06 11:00 10.30458 123.97246 47 ft 26 kts 224°
2026-05-06 11:00 10.30324 123.97113 47 ft 28 kts 225°
2026-05-06 11:00 10.30194 123.96972 47 ft 28 kts 225°
2026-05-06 11:01 10.30056 123.96833 46 ft 28 kts 223°
2026-05-06 11:01 10.29932 123.96716 46 ft 13 kts 214°
2026-05-06 11:01 10.29849 123.96740 46 ft 15 kts 129°
2026-05-06 11:01 10.29796 123.96795 45 ft 0 kts 135°
2026-05-06 11:03 10.29796 123.96796 45 ft 0 kts 135°
2026-05-06 11:04 10.29789 123.96802 43 ft 3 kts 135°
2026-05-06 11:04 10.29753 123.96839 43 ft 13 kts 135°
2026-05-06 11:05 10.29717 123.96891 42 ft 5 kts 83°
2026-05-06 11:05 10.29744 123.96926 42 ft 8 kts 46°
2026-05-06 11:05 10.29778 123.96962 41 ft 11 kts 45°
2026-05-06 11:05 10.29973 123.97160 42 ft 72 kts 45°
2026-05-06 11:06 10.30481 123.97670 45 ft 131 kts 45°
2026-05-06 11:06 10.31250 123.98438 55 ft 176 kts 44°
2026-05-06 11:06 10.32145 123.99351 588 ft 182 kts 44°
2026-05-06 11:06 10.33016 124.00273 1346 ft 179 kts 45°
2026-05-06 11:07 10.33865 124.01183 2080 ft 176 kts 50°
2026-05-06 11:07 10.34321 124.02353 2421 ft 192 kts 90°
2026-05-06 11:07 10.33854 124.03679 2713 ft 212 kts 122°
2026-05-06 11:07 10.32929 124.04914 3025 ft 228 kts 125°
2026-05-06 11:08 10.31914 124.06232 3312 ft 246 kts 125°
2026-05-06 11:08 10.30827 124.07660 3651 ft 264 kts 125°
2026-05-06 11:08 10.29690 124.09173 4204 ft 272 kts 124°
2026-05-06 11:08 10.28541 124.10712 4948 ft 274 kts 124°
2026-05-06 11:09 10.27405 124.12241 5717 ft 275 kts 124°
2026-05-06 11:09 10.26234 124.13822 6470 ft 278 kts 124°
2026-05-06 11:09 10.25085 124.15379 7162 ft 280 kts 124°
2026-05-06 11:09 10.23914 124.16970 7915 ft 282 kts 124°
2026-05-06 11:10 10.22718 124.18591 8664 ft 284 kts 124°
2026-05-06 11:10 10.21546 124.20181 9390 ft 286 kts 124°
2026-05-06 11:10 10.20308 124.21775 10056 ft 291 kts 133°
2026-05-06 11:10 10.18582 124.22910 10497 ft 307 kts 158°
2026-05-06 11:11 10.16404 124.23252 10793 ft 328 kts 175°
2026-05-06 11:11 10.14072 124.23296 11080 ft 344 kts 176°
2026-05-06 11:11 10.11623 124.23334 11354 ft 359 kts 176°
2026-05-06 11:11 10.09071 124.23384 11628 ft 375 kts 176°
2026-05-06 11:12 10.06412 124.23444 11881 ft 389 kts 176°
2026-05-06 11:12 10.03660 124.23514 12247 ft 400 kts 176°
2026-05-06 11:12 10.00863 124.23587 12830 ft 404 kts 176°
2026-05-06 11:12 9.98047 124.23663 13456 ft 407 kts 176°
2026-05-06 11:13 9.95206 124.23740 13995 ft 411 kts 176°
2026-05-06 11:13 9.92338 124.23819 14508 ft 414 kts 176°
2026-05-06 11:13 9.89446 124.23899 15020 ft 417 kts 176°
2026-05-06 11:13 9.86532 124.23980 15529 ft 421 kts 176°
2026-05-06 11:14 9.83598 124.24062 16035 ft 424 kts 176°
2026-05-06 11:14 9.80638 124.24144 16537 ft 427 kts 176°
2026-05-06 11:14 9.77655 124.24227 17035 ft 430 kts 176°
2026-05-06 11:14 9.74653 124.24309 17531 ft 433 kts 176°
2026-05-06 11:15 9.71625 124.24393 18010 ft 437 kts 176°
2026-05-06 11:15 9.68574 124.24478 18434 ft 440 kts 176°
2026-05-06 11:15 9.65504 124.24564 18842 ft 443 kts 176°
2026-05-06 11:15 9.62411 124.24651 19276 ft 445 kts 176°
2026-05-06 11:16 9.59305 124.24737 19696 ft 448 kts 176°
2026-05-06 11:16 9.56183 124.24826 20111 ft 450 kts 176°
2026-05-06 11:16 9.53058 124.25085 20528 ft 451 kts 171°
2026-05-06 11:16 9.49965 124.25641 20949 ft 452 kts 165°
2026-05-06 11:17 9.46928 124.26486 21356 ft 454 kts 161°
2026-05-06 11:17 9.43913 124.27458 21757 ft 456 kts 160°
2026-05-06 11:17 9.40892 124.28460 22143 ft 459 kts 160°
2026-05-06 11:17 9.37846 124.29470 22538 ft 461 kts 160°
2026-05-06 11:18 9.34787 124.30482 22924 ft 464 kts 160°
2026-05-06 11:18 9.31714 124.31493 23308 ft 466 kts 160°
2026-05-06 11:18 9.28619 124.32508 23647 ft 469 kts 160°
2026-05-06 11:18 9.25508 124.33527 23946 ft 471 kts 160°
2026-05-06 11:19 9.22384 124.34548 24262 ft 473 kts 160°
2026-05-06 11:19 9.19244 124.35575 24578 ft 475 kts 160°
2026-05-06 11:19 9.16492 124.36474 24854 ft 477 kts 161°
2026-05-06 11:19 9.13326 124.37508 25164 ft 479 kts 160°
2026-05-06 11:20 9.10144 124.38548 25468 ft 481 kts 161°
2026-05-06 11:20 9.06952 124.39592 25780 ft 483 kts 161°
2026-05-06 11:20 9.03747 124.40638 26083 ft 485 kts 161°
2026-05-06 11:20 9.00524 124.41688 26385 ft 488 kts 161°
2026-05-06 11:21 8.97288 124.42742 26684 ft 490 kts 161°
2026-05-06 11:21 8.94038 124.43802 26993 ft 492 kts 161°
2026-05-06 11:21 8.90778 124.44864 27345 ft 492 kts 161°
2026-05-06 11:21 8.87525 124.45924 27800 ft 490 kts 161°
2026-05-06 11:22 8.84272 124.46985 28276 ft 488 kts 161°
2026-05-06 11:22 8.81043 124.48039 28727 ft 487 kts 162°
2026-05-06 11:22 8.77824 124.49088 29156 ft 486 kts 162°
2026-05-06 11:22 8.74616 124.50134 29599 ft 485 kts 162°
2026-05-06 11:23 8.71408 124.51180 30026 ft 483 kts 162°
2026-05-06 11:23 8.68256 124.52207 30379 ft 482 kts 162°
2026-05-06 11:23 8.65062 124.53247 30743 ft 481 kts 162°
2026-05-06 11:23 8.61881 124.54284 31103 ft 480 kts 162°
2026-05-06 11:24 8.58699 124.55322 31433 ft 480 kts 162°
2026-05-06 11:24 8.55518 124.56358 31726 ft 481 kts 162°
2026-05-06 11:24 8.52324 124.57398 32006 ft 483 kts 162°
2026-05-06 11:24 8.49080 124.58281 32283 ft 484 kts 168°
2026-05-06 11:25 8.45759 124.58852 32573 ft 485 kts 173°
2026-05-06 11:25 8.42392 124.59102 32840 ft 486 kts 178°
2026-05-06 11:25 8.39013 124.59030 32879 ft 487 kts 184°
2026-05-06 11:26 8.32337 124.57904 32894 ft 487 kts 195°
2026-05-06 11:26 8.25855 124.55878 32902 ft 487 kts 198°
2026-05-06 11:27 8.19404 124.53777 32908 ft 487 kts 198°
2026-05-06 11:27 8.12938 124.51688 32923 ft 487 kts 197°
2026-05-06 11:28 8.06457 124.49607 32924 ft 488 kts 197°
2026-05-06 11:28 7.99993 124.47534 32925 ft 488 kts 197°
2026-05-06 11:29 7.93516 124.45454 32930 ft 488 kts 197°
2026-05-06 11:29 7.87052 124.43377 32932 ft 488 kts 197°
2026-05-06 11:30 7.80583 124.41302 32925 ft 488 kts 197°
2026-05-06 11:30 7.75206 124.39579 32718 ft 487 kts 197°
2026-05-06 11:30 7.70894 124.38198 32382 ft 485 kts 197°
2026-05-06 11:31 7.68769 124.37517 32214 ft 483 kts 197°
2026-05-06 11:31 7.65573 124.36494 31964 ft 481 kts 197°
2026-05-06 11:31 7.62348 124.35620 31703 ft 479 kts 189°
2026-05-06 11:31 7.59037 124.35320 31458 ft 479 kts 180°
2026-05-06 11:32 7.55717 124.35569 31213 ft 479 kts 171°
2026-05-06 11:32 7.52465 124.36317 30995 ft 480 kts 164°
2026-05-06 11:32 7.49254 124.37244 30753 ft 481 kts 163°
2026-05-06 11:32 7.46045 124.38194 30514 ft 482 kts 163°
2026-05-06 11:33 7.42824 124.39146 30284 ft 482 kts 163°
2026-05-06 11:33 7.39598 124.40094 29993 ft 484 kts 163°
2026-05-06 11:33 7.36361 124.41037 29431 ft 485 kts 163°
2026-05-06 11:33 7.33321 124.41918 28759 ft 487 kts 163°
2026-05-06 11:34 7.30058 124.42862 27985 ft 489 kts 163°
2026-05-06 11:34 7.26776 124.43810 27242 ft 491 kts 163°
2026-05-06 11:34 7.23497 124.44758 26658 ft 489 kts 163°
2026-05-06 11:34 7.20226 124.45702 26022 ft 489 kts 163°
2026-05-06 11:35 7.16962 124.46645 25405 ft 488 kts 163°
2026-05-06 11:35 7.13699 124.47587 24807 ft 486 kts 163°
2026-05-06 11:35 7.10456 124.48523 24291 ft 483 kts 163°
2026-05-06 11:35 7.07240 124.49451 23810 ft 479 kts 163°
2026-05-06 11:36 7.04049 124.50371 23351 ft 475 kts 162°
2026-05-06 11:36 7.00886 124.51284 22831 ft 470 kts 162°
2026-05-06 11:36 6.97763 124.52185 22383 ft 465 kts 162°
2026-05-06 11:36 6.94673 124.53076 21949 ft 459 kts 162°
2026-05-06 11:37 6.91623 124.53956 21521 ft 453 kts 162°
2026-05-06 11:37 6.88608 124.54826 21096 ft 448 kts 162°
2026-05-06 11:37 6.85624 124.55686 20687 ft 444 kts 162°
2026-05-06 11:37 6.82664 124.56539 20274 ft 439 kts 162°
2026-05-06 11:38 6.79740 124.57382 19862 ft 435 kts 162°
2026-05-06 11:38 6.76840 124.58218 19455 ft 431 kts 162°
2026-05-06 11:38 6.73966 124.59046 19047 ft 428 kts 162°
2026-05-06 11:38 6.71115 124.59867 18642 ft 425 kts 162°
2026-05-06 11:39 6.68345 124.60850 18226 ft 420 kts 154°
2026-05-06 11:39 6.65765 124.62200 17774 ft 416 kts 147°
2026-05-06 11:39 6.63378 124.63829 17336 ft 412 kts 142°
2026-05-06 11:39 6.61103 124.65562 16920 ft 408 kts 141°
2026-05-06 11:40 6.58861 124.67296 16501 ft 405 kts 141°
2026-05-06 11:40 6.56634 124.69013 16099 ft 402 kts 141°
2026-05-06 11:40 6.54414 124.70713 15695 ft 399 kts 141°
2026-05-06 11:40 6.52205 124.72397 15302 ft 397 kts 141°
2026-05-06 11:41 6.50008 124.74068 14896 ft 395 kts 141°
2026-05-06 11:41 6.47847 124.75708 14485 ft 393 kts 141°
2026-05-06 11:41 6.45667 124.77362 14101 ft 391 kts 141°
2026-05-06 11:41 6.43499 124.79007 13724 ft 389 kts 141°
2026-05-06 11:42 6.41344 124.80641 13258 ft 387 kts 141°
2026-05-06 11:42 6.39316 124.82402 12857 ft 383 kts 134°
2026-05-06 11:42 6.37522 124.84371 12449 ft 379 kts 127°
2026-05-06 11:42 6.35958 124.86489 12056 ft 375 kts 124°
2026-05-06 11:43 6.34472 124.88641 11661 ft 373 kts 123°
2026-05-06 11:43 6.33004 124.90781 11237 ft 370 kts 123°
2026-05-06 11:43 6.31541 124.92903 10853 ft 368 kts 124°
2026-05-06 11:44 6.28440 124.96820 10552 ft 345 kts 128°
2026-05-06 11:44 6.26933 124.98613 10394 ft 323 kts 128°
2026-05-06 11:44 6.25530 125.00277 10376 ft 304 kts 128°
2026-05-06 11:44 6.24178 125.01883 10289 ft 297 kts 128°
2026-05-06 11:45 6.22833 125.03486 10054 ft 302 kts 128°
2026-05-06 11:45 6.21477 125.05102 9698 ft 301 kts 128°
2026-05-06 11:45 6.20128 125.06709 9318 ft 300 kts 128°
2026-05-06 11:45 6.18783 125.08311 8971 ft 299 kts 128°
2026-05-06 11:46 6.17449 125.09897 8688 ft 295 kts 128°
2026-05-06 11:46 6.16127 125.11470 8379 ft 294 kts 128°
2026-05-06 11:46 6.14807 125.13039 8086 ft 293 kts 128°
2026-05-06 11:46 6.13492 125.14603 7794 ft 292 kts 128°
2026-05-06 11:47 6.12185 125.16159 7510 ft 291 kts 128°
2026-05-06 11:47 6.10805 125.17642 7201 ft 292 kts 142°
2026-05-06 11:47 6.08986 125.18515 6920 ft 292 kts 168°
2026-05-06 11:47 6.06972 125.18802 6648 ft 292 kts 174°
2026-05-06 11:48 6.04955 125.19013 6371 ft 291 kts 174°
2026-05-06 11:48 6.02939 125.19229 6065 ft 290 kts 173°
2026-05-06 11:48 6.00942 125.19462 5736 ft 288 kts 173°
2026-05-06 11:48 5.98955 125.19703 5434 ft 287 kts 172°
2026-05-06 11:49 5.96979 125.19945 5111 ft 285 kts 172°
2026-05-06 11:49 5.95010 125.20187 4798 ft 284 kts 172°
2026-05-06 11:49 5.93053 125.20428 4483 ft 283 kts 172°
2026-05-06 11:49 5.91096 125.20592 4149 ft 282 kts 185°
2026-05-06 11:50 5.89309 125.19944 3811 ft 279 kts 218°
2026-05-06 11:50 5.88117 125.18444 3501 ft 275 kts 248°
2026-05-06 11:50 5.87731 125.16577 3200 ft 272 kts 264°
2026-05-06 11:50 5.87544 125.14686 2888 ft 271 kts 265°
2026-05-06 11:51 5.87739 125.12828 2448 ft 267 kts 296°
2026-05-06 11:51 5.88931 125.11524 2455 ft 251 kts 333°
2026-05-06 11:51 5.90611 125.11126 2462 ft 250 kts 355°
2026-05-06 11:51 5.92327 125.11044 2437 ft 242 kts 357°
2026-05-06 11:52 5.93990 125.10957 2417 ft 239 kts 355°
2026-05-06 11:52 5.95635 125.10850 2332 ft 233 kts 355°
2026-05-06 11:52 5.97196 125.10726 2282 ft 216 kts 353°
2026-05-06 11:52 5.98650 125.10521 2024 ft 206 kts 349°
2026-05-06 11:53 6.00048 125.10322 1666 ft 201 kts 352°
2026-05-06 11:53 6.01429 125.10165 1241 ft 198 kts 353°
2026-05-06 11:53 6.02782 125.09991 897 ft 192 kts 353°
2026-05-06 11:53 6.04069 125.09834 612 ft 181 kts 353°
2026-05-06 11:54 6.05239 125.09688 522 ft 145 kts 354°
2026-05-06 11:54 6.05897 125.09608 522 ft 68 kts 353°
2026-05-06 11:54 6.06344 125.09554 524 ft 62 kts 353°
2026-05-06 11:54 6.06758 125.09503 523 ft 58 kts 353°
2026-05-06 11:55 6.07100 125.09461 521 ft 30 kts 353°
2026-05-06 11:55 6.07227 125.09470 520 ft 15 kts 49°
2026-05-06 11:55 6.07260 125.09564 521 ft 4 kts 84°
2026-05-06 11:55 6.07248 125.09594 521 ft 6 kts 131°
2026-05-06 11:56 6.07208 125.09612 522 ft 3 kts 171°
2026-05-06 11:56 6.07207 125.09612 522 ft 0 kts 171°
2026-05-06 11:56 6.07203 125.09613 522 ft 2 kts 171°
2026-05-06 11:56 6.07176 125.09613 522 ft 0 kts 198°
2026-05-06 11:58 6.07171 125.09611 522 ft 5 kts 208°
2026-05-06 11:58 6.07148 125.09579 522 ft 0 kts 253°
2026-05-06 12:01 6.07147 125.09576 521 ft 1 kts 253°
2026-05-06 12:01 6.07145 125.09567 520 ft 4 kts 254°
2026-05-06 12:01 6.07135 125.09509 521 ft 9 kts 260°
2026-05-06 12:02 6.07092 125.09469 520 ft 10 kts 191°
2026-05-06 12:02 6.07007 125.09472 521 ft 15 kts 173°
2026-05-06 12:02 6.06889 125.09486 521 ft 20 kts 173°
2026-05-06 12:02 6.06745 125.09504 523 ft 21 kts 173°
2026-05-06 12:03 6.06594 125.09522 524 ft 23 kts 173°
2026-05-06 12:03 6.06425 125.09543 526 ft 28 kts 173°
2026-05-06 12:03 6.06198 125.09572 525 ft 37 kts 174°
2026-05-06 12:03 6.05928 125.09605 522 ft 32 kts 173°
2026-05-06 12:04 6.05830 125.09627 522 ft 10 kts 129°
2026-05-06 12:04 6.05824 125.09707 522 ft 13 kts 84°
2026-05-06 12:04 6.05838 125.09827 522 ft 8 kts 84°
2026-05-06 12:04 6.05835 125.09848 522 ft 9 kts 112°
2026-05-06 12:05 6.05768 125.09876 522 ft 4 kts 180°
2026-05-06 12:05 6.05728 125.09879 522 ft 6 kts 175°
2026-05-06 12:05 6.05712 125.09890 522 ft 1 kts 92°
2026-05-06 12:05 6.05713 125.09926 522 ft 5 kts 85°
2026-05-06 12:06 6.05714 125.09944 522 ft 0 kts 84°